Change the Weather History Date:

Monday, May 12, 2014

  Actual Average (KISP) Record (KISP)
Temperature  
Mean Temperature 62 °F 57 °F  
Max Temperature 77 °F 66 °F 87 °F (1991)
Min Temperature 50 °F 48 °F 37 °F (1990)
Degree Days  
Heating Degree Days 2 8  
Month to date heating degree days 115  
Since 1 July heating degree days 5286  
Cooling Degree Days 0 0  
Month to date cooling degree days 0  
Year to date cooling degree days 2  
Growing Degree Days 12 (Base 50)    
Moisture  
Dew Point 53 °F    
Average Humidity 71    
Maximum Humidity 93    
Minimum Humidity 46    
Precipitation  
Precipitation 0.00 in 0.12 in 1.74 in (2006)
Month to date precipitation 1.39  
Year to date precipitation 17.07  
Snow  
Snow 0.00 in 0.00 in - ()
Month to date snowfall 0.0  
Since 1 July snowfall 24.8  
Snow Depth -    
Sea Level Pressure  
Sea Level Pressure 30.10 in    
Wind  
Wind Speed 4 mph (SSW)    
Max Wind Speed 14 mph    
Max Gust Speed 23 mph    
Visibility 10 miles    
Events      
T = Trace of Precipitation, MM = Missing Value Source: NWS Daily Summary

Daily Weather History Graph

Daily Weather History Graph

Search for Another Location

Airport or City:

Trip Planner

Search our weather history database for the weather conditions in past years. The results will help you decide how hot, cold, wet, or windy it might be!

Date:

Astronomy

May. 12, 2014 Rise Set
Actual Time 5:37 AM EDT 7:59 PM EDT
Civil Twilight 5:06 AM EDT 8:30 PM EDT
Nautical Twilight 4:28 AM EDT 9:08 PM EDT
Astronomical Twilight 3:46 AM EDT 9:50 PM EDT
Moon 5:53 PM EDT (5/12) 4:15 AM EDT (5/12)
Length of Visible Light 15h 23m
Length of Day
14h 21m
Waxing Gibbous, 95% of the Moon is Illuminated
May 12
Waxing Gibbous
May 14
Full
May 21
Last Quarter
May 28
New
Jun 5
First Quarter

Hourly Weather History & Observations

Time (EDT) Temp. Dew Point Humidity Pressure Visibility Wind Dir Wind Speed Gust Speed Precip Events Conditions
12:56 AM 54.0 °F 48.9 °F 83% 30.09 in 10.0 mi Calm Calm - N/A   Clear
1:56 AM 55.0 °F 50.0 °F 83% 30.09 in 10.0 mi SW 3.5 mph - N/A   Clear
2:56 AM 52.0 °F 48.9 °F 89% 30.09 in 10.0 mi Calm Calm - N/A   Clear
3:56 AM 51.1 °F 48.9 °F 92% 30.10 in 10.0 mi Calm Calm - N/A   Clear
4:56 AM 51.1 °F 48.9 °F 92% 30.11 in 8.0 mi Calm Calm - N/A   Clear
5:56 AM 50.0 °F 48.0 °F 93% 30.11 in 8.0 mi Calm Calm - N/A   Clear
6:56 AM 54.0 °F 52.0 °F 93% 30.13 in 9.0 mi Calm Calm - N/A   Clear
7:56 AM 62.1 °F 55.0 °F 78% 30.12 in 10.0 mi SW 3.5 mph - N/A   Clear
8:56 AM 66.9 °F 55.0 °F 66% 30.13 in 10.0 mi Calm Calm - N/A   Clear
10:56 AM 75.9 °F 54.0 °F 46% 30.13 in 10.0 mi Variable 6.9 mph - N/A   Clear
11:56 AM 75.0 °F 53.1 °F 46% 30.12 in 10.0 mi South 9.2 mph - N/A   Clear
12:56 PM 73.0 °F 54.0 °F 51% 30.12 in 10.0 mi SSW 10.4 mph - N/A   Clear
1:56 PM 75.0 °F 54.0 °F 48% 30.11 in 10.0 mi SSW 10.4 mph - N/A   Clear
2:56 PM 73.0 °F 55.9 °F 55% 30.11 in 10.0 mi SSW 11.5 mph - N/A   Clear
3:56 PM 70.0 °F 55.0 °F 59% 30.09 in 10.0 mi SSW 13.8 mph - N/A   Scattered Clouds
4:56 PM 70.0 °F 55.0 °F 59% 30.08 in 10.0 mi SSW 10.4 mph 23.0 mph N/A   Partly Cloudy
5:56 PM 68.0 °F 55.0 °F 63% 30.08 in 10.0 mi SSW 12.7 mph - N/A   Mostly Cloudy
6:56 PM 64.9 °F 54.0 °F 68% 30.08 in 10.0 mi SW 10.4 mph - N/A   Overcast
7:56 PM 66.0 °F 54.0 °F 65% 30.08 in 10.0 mi SW 9.2 mph - N/A   Overcast
8:56 PM 64.0 °F 54.0 °F 70% 30.08 in 10.0 mi SW 10.4 mph - N/A   Overcast
9:56 PM 63.0 °F 55.0 °F 75% 30.07 in 10.0 mi SW 5.8 mph - N/A   Scattered Clouds
10:56 PM 62.1 °F 55.9 °F 80% 30.07 in 10.0 mi SSW 4.6 mph - N/A   Mostly Cloudy
11:56 PM 62.1 °F 55.9 °F 80% 30.05 in 10.0 mi SSW 4.6 mph - N/A   Clear